TimeEST,TemperatureF,Dew PointF,Humidity,Sea Level PressureIn,VisibilityMPH,Wind Direction,Wind SpeedMPH,Gust SpeedMPH,PrecipitationIn,Events,Conditions,WindDirDegrees,DateUTC
12:15 AM,35.1,26.8,72,30.23,10.0,SSW,11.5,-,N/A,,Clear,210,2013-01-19 05:15:00
12:35 AM,35.1,27.1,73,30.23,10.0,SSW,10.4,-,N/A,,Clear,200,2013-01-19 05:35:00
12:55 AM,35.1,27.3,73,30.23,10.0,SSW,8.1,-,N/A,,Clear,200,2013-01-19 05:55:00
1:15 AM,35.1,26.8,72,30.22,10.0,SSW,10.4,-,N/A,,Clear,200,2013-01-19 06:15:00
1:35 AM,37.6,28.4,69,30.21,10.0,SSW,12.7,-,N/A,,Clear,210,2013-01-19 06:35:00
1:55 AM,37.6,27.9,68,30.21,10.0,SSW,13.8,19.6,N/A,,Clear,210,2013-01-19 06:55:00
2:15 AM,37.6,27.5,67,30.21,10.0,SSW,11.5,19.6,N/A,,Clear,210,2013-01-19 07:15:00
2:35 AM,37.6,27.5,67,30.21,10.0,SSW,13.8,-,N/A,,Clear,210,2013-01-19 07:35:00
2:55 AM,37.6,27.9,68,30.20,10.0,SSW,13.8,-,N/A,,Clear,210,2013-01-19 07:55:00
3:15 AM,37.6,28.4,69,30.20,10.0,SW,15.0,-,N/A,,Clear,220,2013-01-19 08:15:00
3:35 AM,37.9,28.2,68,30.20,10.0,SSW,15.0,-,N/A,,Clear,210,2013-01-19 08:35:00
3:55 AM,37.6,28.2,69,30.19,10.0,SSW,15.0,-,N/A,,Clear,210,2013-01-19 08:55:00
4:15 AM,37.6,28.8,70,30.19,10.0,SW,11.5,-,N/A,,Clear,220,2013-01-19 09:15:00
4:35 AM,37.6,29.3,72,30.19,10.0,SW,10.4,-,N/A,,Clear,220,2013-01-19 09:35:00
4:55 AM,37.6,29.3,72,30.19,10.0,SW,10.4,-,N/A,,Clear,220,2013-01-19 09:55:00
5:15 AM,35.4,27.5,73,30.19,10.0,SW,10.4,-,N/A,,Clear,220,2013-01-19 10:15:00
5:35 AM,37.6,29.3,72,30.19,10.0,SW,11.5,-,N/A,,Clear,220,2013-01-19 10:35:00
5:55 AM,37.6,29.1,72,30.19,10.0,SW,10.4,-,N/A,,Clear,220,2013-01-19 10:55:00
6:15 AM,37.6,29.3,72,30.18,10.0,SW,10.4,-,N/A,,Clear,220,2013-01-19 11:15:00
6:35 AM,37.6,28.8,70,30.18,10.0,SW,11.5,-,N/A,,Clear,220,2013-01-19 11:35:00
6:55 AM,37.6,29.3,72,30.18,10.0,SSW,12.7,-,N/A,,Clear,210,2013-01-19 11:55:00
8:15 AM,37.6,29.3,72,30.18,10.0,SSW,11.5,-,N/A,,Clear,210,2013-01-19 13:15:00
8:55 AM,38.8,29.3,69,30.17,10.0,SSW,16.1,21.9,N/A,,Clear,210,2013-01-19 13:55:00
9:15 AM,40.3,29.3,65,30.17,10.0,SW,16.1,20.7,N/A,,Clear,220,2013-01-19 14:15:00
9:35 AM,41.2,29.1,62,30.17,10.0,SW,18.4,27.6,N/A,,Clear,220,2013-01-19 14:35:00
10:35 AM,46.6,31.3,55,30.16,10.0,SW,20.7,-,N/A,,Clear,220,2013-01-19 15:35:00
10:55 AM,47.7,31.8,54,30.16,10.0,SW,18.4,26.5,N/A,,Clear,230,2013-01-19 15:55:00
11:15 AM,47.7,31.3,53,30.15,10.0,SW,19.6,27.6,N/A,,Clear,220,2013-01-19 16:15:00
11:35 AM,47.7,30.4,51,30.13,10.0,SW,20.7,27.6,N/A,,Clear,220,2013-01-19 16:35:00
11:55 AM,50.2,31.5,49,30.11,10.0,SW,20.7,26.5,N/A,,Clear,220,2013-01-19 16:55:00
12:15 PM,50.5,31.3,48,30.10,10.0,SW,16.1,-,N/A,,Clear,220,2013-01-19 17:15:00
12:35 PM,52.7,32.0,45,30.08,10.0,SW,25.3,32.2,N/A,,Clear,230,2013-01-19 17:35:00
12:55 PM,52.7,30.9,43,30.06,10.0,SW,25.3,31.1,N/A,,Clear,220,2013-01-19 17:55:00
1:15 PM,52.7,30.2,42,30.04,10.0,SW,26.5,34.5,N/A,,Clear,220,2013-01-19 18:15:00
1:35 PM,52.7,29.7,41,30.03,10.0,SW,21.9,31.1,N/A,,Clear,220,2013-01-19 18:35:00
1:55 PM,53.6,30.7,42,30.02,10.0,SSW,17.3,23.0,N/A,,Clear,210,2013-01-19 18:55:00
2:35 PM,54.7,30.7,40,30.00,10.0,SSW,23.0,31.1,N/A,,Clear,210,2013-01-19 19:35:00
2:55 PM,55.4,30.9,39,29.99,10.0,SW,20.7,31.1,N/A,,Clear,220,2013-01-19 19:55:00
3:15 PM,55.4,30.4,38,29.98,10.0,SSW,23.0,31.1,N/A,,Clear,210,2013-01-19 20:15:00
3:35 PM,55.4,30.2,38,29.97,10.0,SW,20.7,26.5,N/A,,Clear,220,2013-01-19 20:35:00
3:55 PM,55.4,30.0,38,29.96,10.0,SSW,20.7,28.8,N/A,,Clear,210,2013-01-19 20:55:00
4:15 PM,55.4,30.4,38,29.95,10.0,SSW,21.9,32.2,N/A,,Clear,210,2013-01-19 21:15:00
4:35 PM,54.5,30.4,40,29.94,10.0,SSW,19.6,25.3,N/A,,Clear,200,2013-01-19 21:35:00
4:55 PM,52.7,29.1,40,29.93,10.0,SSW,18.4,27.6,N/A,,Clear,200,2013-01-19 21:55:00
5:15 PM,52.7,29.8,42,29.92,10.0,SSW,24.2,32.2,N/A,,Clear,210,2013-01-19 22:15:00
5:35 PM,52.7,30.0,42,29.92,10.0,SSW,18.4,31.1,N/A,,Clear,210,2013-01-19 22:35:00
5:55 PM,52.7,31.1,44,29.92,10.0,SSW,16.1,25.3,N/A,,Clear,210,2013-01-19 22:55:00
6:15 PM,52.7,31.5,44,29.92,10.0,SW,20.7,28.8,N/A,,Clear,220,2013-01-19 23:15:00
6:35 PM,50.2,30.4,47,29.92,10.0,SSW,17.3,24.2,N/A,,Clear,210,2013-01-19 23:35:00
6:55 PM,50.2,31.1,48,29.93,10.0,SW,18.4,-,N/A,,Clear,220,2013-01-19 23:55:00
7:15 PM,48.9,30.7,50,29.94,10.0,SW,17.3,24.2,N/A,,Clear,220,2013-01-20 00:15:00
7:35 PM,48.2,30.7,51,29.94,10.0,SW,18.4,25.3,N/A,,Clear,230,2013-01-20 00:35:00
7:55 PM,47.7,30.9,52,29.94,10.0,SW,17.3,23.0,N/A,,Clear,220,2013-01-20 00:55:00
8:15 PM,47.7,31.3,53,29.94,10.0,SW,18.4,-,N/A,,Clear,220,2013-01-20 01:15:00
8:35 PM,47.7,32.0,55,29.93,10.0,SW,15.0,19.6,N/A,,Clear,220,2013-01-20 01:35:00
8:55 PM,47.7,32.0,55,29.92,10.0,SW,16.1,-,N/A,,Clear,220,2013-01-20 01:55:00
9:15 PM,47.7,32.0,55,29.92,10.0,SW,16.1,21.9,N/A,,Clear,220,2013-01-20 02:15:00
9:35 PM,47.7,32.2,55,29.92,10.0,SW,15.0,21.9,N/A,,Clear,220,2013-01-20 02:35:00
9:55 PM,47.7,32.2,55,29.92,10.0,SW,16.1,23.0,N/A,,Clear,220,2013-01-20 02:55:00
10:15 PM,47.7,32.2,55,29.92,10.0,SW,18.4,21.9,N/A,,Clear,230,2013-01-20 03:15:00
10:35 PM,47.7,32.9,57,29.92,10.0,SW,15.0,-,N/A,,Clear,230,2013-01-20 03:35:00
10:55 PM,47.7,32.9,57,29.92,10.0,SW,15.0,21.9,N/A,,Clear,230,2013-01-20 03:55:00
11:15 PM,47.7,33.1,57,29.92,10.0,SW,16.1,-,N/A,,Clear,230,2013-01-20 04:15:00
11:35 PM,47.7,33.1,57,29.92,10.0,SW,13.8,20.7,N/A,,Clear,230,2013-01-20 04:35:00
11:55 PM,47.7,33.8,59,29.92,10.0,SW,13.8,-,N/A,,Clear,230,2013-01-20 04:55:00